User: anonymous   Login
Location: Cruquius
(52.3348°N, 4.6319°E)
Time: 04:50:16
(UTC+00:00)
Language:

Cosmos 2181 Rocket - Orbit

View from above orbital plane
View from above orbital plane
View from above satellite
View from above satellite

Ground track
Ground track

The orbit data is extracted from the following two-line orbital elements,

1 21903U 92012B   21210.39297177  .00000073  00000-0  60667-4 0  9999
2 21903  82.9385 150.2216 0041675 221.4712 256.4510 13.74526824473808
Epoch (UTC): 29 July 2021 09:25:52
Eccentricity: 0.0041675
inclination: 82.9385°
perigee height: 952 km
apogee height: 1014 km
right ascension of ascending node: 150.2216°
argument of perigee: 221.4712°
revolutions per day: 13.74526824
mean anomaly at epoch: 256.4510°
orbit number at epoch: 47380

The dashed part of the orbit path shows where the satellite is in the earth's shadow,  

DLR